Location: Quaker Farms
(41.4276°N, 73.1557°W)
Time: 19:54:42
(UTC+00:00)

S-56A Canister/Altair - Pass Details

Date: 22 June 2021
Orbit: 631 x 2501 km, 38.9° (Epoch: 30 July)

Event Time Altitude Azimuth Distance (km) Brightness Sun altitude
Rises 13:23:36 0° 275° (W) 3,087 10.2 42.8°
Reaches altitude 10° 13:25:53 10° 266° (W) 2,290 9.6 43.2°
Maximum altitude 13:30:38 34° 202° (SSW) 1,469 9.2 44.1°
Drops below altitude 10° 13:37:06 10° 140° (SE) 3,151 11.3 45.3°
Sets 13:40:48 0° 132° (SE) 4,444 12.0 46.0°
